Date,TemperatureHighF,TemperatureAvgF,TemperatureLowF,DewpointHighF,DewpointAvgF,DewpointLowF,HumidityHigh,HumidityAvg,HumidityLow,PressureMaxIn,PressureMinIn,WindSpeedMaxMPH,WindSpeedAvgMPH,GustSpeedMaxMPH,PrecipitationSumIn
2013-3-1,65.6,61.1,56.8,54.0,50.1,45.0,79,68,50,29.99,29.91,3,0,6,0.00
2013-3-2,67.4,57.5,50.4,48.0,41.3,37.0,74,56,36,30.04,29.96,7,1,13,0.00
2013-3-3,63.0,52.7,45.6,41.0,38.8,35.0,82,61,42,30.16,29.98,5,1,11,0.00
2013-3-4,58.2,48.5,42.6,46.0,38.7,33.0,87,70,43,30.23,30.13,3,0,8,0.00
2013-3-5,75.8,62.3,45.3,60.0,52.9,44.0,96,73,53,30.19,30.09,6,1,9,0.00
2013-3-6,77.4,64.5,51.7,63.0,49.8,25.0,93,64,22,30.11,29.96,8,1,10,0.00
2013-3-7,71.6,57.8,45.9,56.0,46.8,35.0,92,68,43,30.19,30.09,4,0,9,0.00
2013-3-8,74.6,62.0,49.7,54.0,50.6,46.0,94,69,44,30.22,30.12,3,0,4,0.00
2013-3-9,77.6,65.6,53.8,58.0,53.7,50.0,90,67,48,30.21,30.11,3,0,8,0.00
2013-3-10,77.3,70.9,66.6,60.0,56.6,52.0,73,61,50,30.17,30.09,7,2,9,0.00
2013-3-11,77.7,71.5,67.7,64.0,60.5,57.0,76,68,56,30.13,29.97,8,2,11,0.00
2013-3-12,80.0,73.9,69.1,71.0,65.9,62.0,86,76,67,30.01,29.91,6,1,10,0.00
2013-3-13,74.6,64.9,55.8,65.0,56.2,51.0,93,75,54,30.14,29.99,4,0,6,0.00
2013-3-14,72.0,60.2,51.8,52.0,48.9,43.0,93,68,42,30.22,30.11,6,1,7,0.00
2013-3-15,75.2,62.0,50.3,56.0,51.2,45.0,89,69,45,30.26,30.17,3,0,5,0.00
2013-3-16,76.4,63.9,49.6,58.0,52.6,46.0,97,70,36,30.21,30.10,6,1,9,0.00
2013-3-17,77.6,66.3,54.4,62.0,57.4,53.0,94,75,53,30.16,30.05,5,1,10,0.00
2013-3-18,80.8,72.7,66.5,70.0,65.7,61.0,94,79,66,30.08,29.97,9,1,10,0.30
2013-3-19,79.6,70.9,64.6,70.0,66.5,63.0,95,86,67,30.02,29.84,1,0,10,0.00
2013-3-20,81.2,70.6,60.3,71.0,63.8,58.0,98,81,51,29.98,29.82,4,0,13,0.02
2013-3-21,75.2,65.4,53.0,62.0,54.3,46.0,94,71,39,29.96,29.84,4,0,8,0.00
2013-3-22,77.1,66.4,50.1,69.0,58.2,49.0,97,77,54,30.02,29.91,7,1,9,0.00
2013-3-23,86.2,76.8,70.0,75.0,71.9,69.0,96,85,68,29.98,29.80,9,1,10,0.00
2013-3-24,91.0,79.1,71.1,74.0,71.1,66.0,96,79,52,29.89,29.67,12,2,17,0.75
2013-3-25,82.9,73.0,63.0,72.0,58.1,34.0,97,65,28,30.00,29.74,4,0,7,0.01
2013-3-26,70.1,60.2,50.7,43.0,36.4,30.0,65,43,27,30.22,30.00,5,1,10,0.00
2013-3-27,69.5,56.4,45.1,48.0,41.4,31.0,75,58,44,30.27,30.18,4,1,7,0.00
2013-3-28,73.8,60.8,47.6,53.0,45.9,40.0,85,61,38,30.28,30.19,4,0,7,0.00
2013-3-29,79.4,65.8,53.1,56.0,50.0,44.0,80,59,38,30.30,30.22,3,0,7,0.00
2013-3-30,76.2,69.0,59.9,57.0,52.4,49.0,75,57,42,30.28,30.18,5,1,8,0.00
2013-3-31,81.6,71.6,57.4,67.0,61.5,54.0,90,71,59,30.20,30.06,8,2,11,0.00